Вернуться в каталог

NOAA 16 DEB

АктивенSSO
NORAD 41197·DEBRIS·🇺🇸 United States

Запущен Sep 21, 2000 с Vandenberg Space Force Base

Loading…

Ближайшие Пролёты (ближайшие 24 часа)

TLE

СвежийSource: Space-Track

Эпоха: Sep 12, 2026, 12:23 UTC

1 41197U 00055DA  26255.51606551  .00004283  00000-0  14536-2 0  9999
2 41197  98.6541 274.7242 0030823 228.7896 131.0633 14.36929193551930

Отслеживайте NOAA 16 DEB в реальном времени с AllMySat

Download on the App Store